CZ-6A DEB, 54514

Orbit data source: Space-Track

CZ-6A DEB, 54514 is space debris in SSO originally from a launch on Fri, 11 Nov 2022 UTC launched from the Taiyaun Space Center, China (TSC). Debris objects in space refer to the collection of defunct objects orbiting the Earth. Examples of debris include non-operational satellites, rocket bodies, and fragments generated from explosions, collisions, or faulty payload assembly.

Loading next visibility...
Identifier
54514, 2022-151JS
Orbit
SSO
Country
Flag of CNCN / PRC
Related business
Manufacturer
SAST
Mission
Spacecraft
Bus & Motor
Unknown
Mass
Unknown
Launch date (UTC)
2022-11-11 (3 years ago)
Launch vehicle
Unknown
Launch site
Taiyaun Space Center, China (TSC)
Object type
Payload
Rocket body
Debris
Shape & HBR
Unknown shape, 0.1 m
Radar Cross Section
Small (<0.1 m²)

Expand to show TLE details & history
Last TLE update: 10 hours ago

TLE from 10 hours ago
0 CZ-6A DEB
1 54514U 22151JS  25351.63404226  .00000499  00000-0  17720-3 0  9995
2 54514  98.7066  31.0421 0077648 133.3432 227.4260 14.37120540162121
Epoch: 2025-12-17T15:13Z
TLE epoch observation values (Epoch: 2025-12-17T15:13:01.251Z)
Latitude
0.00001°
Longitude
76.2858°
Altitude
808.746 km
Speed
7.429 km/s
True Right ascension
02h 04m 10s
True Declination
0° 00' 00"
Sunlit
Object was in full shadow at epoch
Visualization orbit readout
Latitude
Unknown
Longitude
Unknown
Altitude
Unknown
Speed
Unknown
Apparent Right ascension
Unknown
Apparent Declination
Unknown
Sunlit
N/A
Visualization observer readout
Local Sidereal Time
00:26:25
Azimuth
Unknown
Elevation
Unknown
Doppler factor
Unknown
Orbital elements
Apogee altitude
820.63 km
Perigee altitude
709.697 km
Semi-major axis
7,143.3 km
Eccentricity
0.00776
Inclination
98.7066°
RAAN
31.0421°
Arg. of periapsis
133.3432°
True anomaly
226.77505°
Mean anomaly
227.426°
Eccentric anomaly
227.1001°
Mean motion
3.59497 °/min
Orbital period
100.14 mins
BSTAR
0.0001772
Loading maneuver chart data...
Computing Atmospheric mass density...
Loading historical data...
Loading historical data...
Loading historical data...
Loading historical data...
Loading historical data...
Loading historical data...
Loading historical data...

Documentation

Showing up to 5 results
|